Regional Weather Roundup
Issued by NWS

Home | Current Version | Previous Version | Text Only | Print | Product List | Glossary On
Versions: 1 2 3 4 5 6 7 8 9 10 11 12 13 14 15 16 17 18 19 20 21 22 23 24 25 26 27 28 29 30 31 32 33 34 35 36 37 38 39 40 41 42 43 44 45 46 47 48 49 50
000
ASUS43 KLOT 201510
RWRIL

ILLINOIS REGIONAL WEATHER ROUNDUP
NATIONAL WEATHER SERVICE CHICAGO/ROMEOVILLE IL
1000 AM CDT WED AUG 20 2014

NOTE: "FAIR" INDICATES FEW OR NO CLOUDS BELOW 12,000 FEET WITH NO
SIGNIFICANT WEATHER AND/OR OBSTRUCTIONS TO VISIBILITY.

* THESE STATIONS ARE NOT UNDER NWS QUALITY CONTROL. THEY ALSO MAY NOT
  REPORT WEATHER SUCH AS PRECIPITATION OR FOG.

ILZ001-002-007-009-015-016-024-201600-
NORTHWEST ILLINOIS

CITY           SKY/WX    TMP DP  RH WIND       PRES   REMARKS
MOLINE         CLOUDY    74  66  76 SW5       29.90R
STERLING*      PTSUNNY   79  66  65 W10       29.91R HX  81
SAVANNA*       PTSUNNY   77  65  65 W5        29.90R
$$

ILZ003-004-008-010-011-017-018-201600-
NORTH CENTRAL ILLINOIS

CITY           SKY/WX    TMP DP  RH WIND       PRES   REMARKS
ROCKFORD       PTSUNNY   78  65  63 W6        29.90R HX  80
FREEPORT*      MOSUNNY   75  69  81 SW6       29.91R
ROCHELLE*      SUNNY     76  67  73 SW7       29.89S
DE KALB*       SUNNY     76  65  68 SW7       29.90S
PERU*          MOSUNNY   77  67  70 SW9       29.92R
$$

ILZ005-006-012>014-019>023-201600-
NORTHEAST ILLINOIS

CITY           SKY/WX    TMP DP  RH WIND       PRES   REMARKS
CHICAGO-OHARE  MOSUNNY   78  61  55 W5        29.88R HX  80
CHICAGO-MIDWAY MOSUNNY   80  66  62 W5        29.89R HX  82
AURORA         PTSUNNY   77  65  66 SW3       29.89R
LANSING*       SUNNY     78  65  63 W7        29.90R HX  80
JOLIET*        SUNNY     76  65  67 SW5       29.90S
WAUKEGAN       SUNNY     77  65  66 VRB5      29.87R
DUPAGE AIRPORT SUNNY     78  65  63 SW3       29.88R HX  80
KANKAKEE*      SUNNY     78  69  74 SW5       29.91S HX  80
WHEELING       SUNNY     79  64  60 W6        29.89R HX  81
MORRIS*        SUNNY     77  68  73 SW6       29.90R
ROMEOVILLE*    SUNNY     76  65  68 SW5       29.89S
NORTHERLY ISL    N/A     78  61  55 SW6         N/A  HX  80
$$

LMZ740>746-201600-
SOUTHERN LAKE MICHIGAN

STATION/POSITION SKY/WX   TEMP    WIND        PRES    VSBY  WAVE
                          AIR SEA DIR/SP/G                  HT/PER
                          (F)     (DEG/KT/KT) (MB)    (MI)  (FT/S)
SOUTHERN BUOY              68 67  270/  4/  6 1011.3R         0
WAUKEGAN HARBOR            77     190/  1/  4   N/A
HARRISON CRIB              75     170/  1/  2   N/A
BURNHAM HARBOR             79     220/  5/  8   N/A
CALUMET HARBOR             78     260/  3/  6 1010.8R
BURNS HARBOR               73     260/  2/  4   N/A
MICHIGAN CITY              71     230/  7/  8   N/A
MICHIGAN CITY 6N           71 70  250/  4/  6   N/A           1/ 2
ST. JOSEPH                 70 70  200/  6/  8   N/A           1/ 2
$$

ILZ025>027-034>036-040-047-049-050-058-095>099-201600-
WEST-CENTRAL ILLINOIS

CITY           SKY/WX    TMP DP  RH WIND       PRES   REMARKS
QUINCY         CLOUDY    75  71  87 CALM      29.90R
GALESBURG*     CLOUDY    69  67  93 E5        29.91F
MACOMB*        CLOUDY    68  68 100 E5        29.93F
JACKSONVILLE*  TSTM      72  70  93 SE5       29.93R
PITTSFIELD*    CLOUDY    74  71  89 S3        29.92R
$$

ILZ028>032-037-038-041>044-048-051>054-059>061-201600-
CENTRAL ILLINOIS

CITY           SKY/WX    TMP DP  RH WIND       PRES   REMARKS
PONTIAC        MOSUNNY   81  68  65 SW6       29.92R HX  83
DECATUR        LGT RAIN  74  71  91 S10       29.95R
PEORIA         CLOUDY    74  68  81 SW10      29.97R
LACON*         CLOUDY    74  67  79 W5        29.93R
LINCOLN*       TSTM      74  71  92 SW5       29.92R
SPRINGFIELD    TSTM      70  68  93 S6        29.91S FOG
TAYLORVILLE    TSTM      68  64  88 N5        29.97R
$$

ILZ033-039-045-046-055>057-062-063-201600-
EAST-CENTRAL ILLINOIS

CITY           SKY/WX    TMP DP  RH WIND       PRES   REMARKS
CHAMPAIGN      MOSUNNY   78  70  76 S5        29.93R HX  80
DANVILLE*      SUNNY     78  70  75 CALM      29.90S HX  80
RANTOUL*       SUNNY     81  65  58 SW5       29.93S HX  83
MATTOON        PTSUNNY   79  72  79 SW7       29.93S HX  82
PARIS*         SUNNY     80  73  79 SW3       29.94S HX  84
$$

ILZ079-100>102-201600-
SOUTHWEST ILLINOIS

CITY           SKY/WX    TMP DP  RH WIND       PRES   REMARKS
ALTON          PTSUNNY   73  73 100 CALM      29.94R
BELLEVILLE     SUNNY     75  75 100 E9        29.93S
CAHOKIA*         N/A     79  72  79 CALM      29.93S HX  82
SPARTA*        CLOUDY    77  71  81 CALM      29.95F
$$

ILZ064>066-069>071-074>076-080>082-084>086-088>090-092>094-201600-
SOUTH-CENTRAL ILLINOIS

CITY           SKY/WX    TMP DP  RH WIND       PRES   REMARKS
CARBONDALE     CLOUDY    76  72  87 CALM      29.96R
CAIRO*         PTSUNNY   85  76  74 W3        29.96S HX  93
MARION         PTSUNNY   77  73  88 W3        29.97R
MT. VERNON     CLOUDY    72  66  83 CALM      29.96R
CENTRALIA*     CLOUDY    73  69  88 S5        29.94F
SALEM*         CLOUDY    74  72  92 S7        29.92F
$$

ILZ067-068-072-073-078-083-087-091-201600-
SOUTHEAST ILLINOIS

CITY           SKY/WX    TMP DP  RH WIND       PRES   REMARKS
LAWRENCEVILLE  MOSUNNY   82  75  79 S5        29.95R HX  89
FLORA*         MOSUNNY   76  73  91 NW5       29.95S
FAIRFIELD*     LGT RAIN  75  73  94 S6        29.94S
HARRISBURG*    CLOUDY    77  75  93 CALM      29.97R
ROBINSON*      MOSUNNY   84  76  79 W3        29.94S HX  93
CARMI*         CLOUDY    81  75  83 CALM      29.94R HX  86
$$

ABBREVIATIONS USED IN REMARKS
   TC - TEMPERATURE IN CELSIUS
  WCI - WIND CHILL INDEX
   HX - HEAT INDEX
  VSB - VISIBILITY
$$



USA.gov is the U.S. government's official web portal to all federal, state and local government web resources and services.